map of BUG home
Great Circle Mapper logo
BUG - Airport
Location
City:  Benguela, Angola
Name:Gen V Deslandes
ICAO:FNBG
IATA:BUG

Details
Type:Airport (Aerodrome, Airfield)
Latitude:1236'32"S (-12.609024)
Longitude:1324'13"E (13.403711)
Datum:other
Elevation:118 ft (36 m)
Variation:5.44W (WMM2015 magnetic declination)
0.18 annual change
Runways:1
Longest:5315 × 100 ft (1620 × 30.5 m), paved

Time
Time Zone:UTC+1
Local Time:

Weather
METAR:FNBG 021600Z 28012KT CAVOK 28/22 Q1008

Related Locations
Nearby:
Farthest:PLPA: 11880 mi / 19119 km
Palmyra Island Atoll [Palmyra Airport (Cooper)], UM

Find:

   beyond  
but within

Other Information
Maps:
NOTAMs:
Links:
Sources:

  
flag of Angola   

Sectional Chart

Flight Planning
at skyvector.com

Satellite Image

Google Maps Satellite view

 

Copyright © 2004-2016 Karl L. Swartz. All rights reserved.
The Great Circle Mapper name and logo are trademarks of the Great Circle Mapper.
All other trademarks mentioned herein belong to their respective owners.
Please see credits for attibutions and further copyright information.

  Follow gcmap on Facebook Follow gcmap on Twitter Follow gcmap on Google+ GCmap on LinkedIn

hCard Microformat

Geo Microformat